• In Russia
  • List of Countries
  • For 7 days
  • Water Temperature
  • Satellite Maps
  • Weather Map
  • Weather Widgets
  • user-avatar
    Login

    Hourly Weather Biatris

    Today, 15 August, Wednesday

    Time Temperature Precipitation Wind Pressure Humidity
    00:00 +17°C° 0 mm 2 mps 657 mmHg 48%
    01:00 +16°C° 0 mm 2 mps 657 mmHg 49%
    02:00 +15°C° 0 mm 2 mps 657 mmHg 49%
    03:00 +15°C° 0 mm 2 mps 656 mmHg 50%
    04:00 +14°C° 0 mm 2 mps 656 mmHg 51%
    05:00 +14°C° 0 mm 2 mps 656 mmHg 51%
    06:00 +16°C° 0 mm 2 mps 657 mmHg 46%
    07:00 +17°C° 0 mm 2 mps 658 mmHg 42%
    08:00 +19°C° 0 mm 3 mps 659 mmHg 38%
    09:00 +23°C° 0 mm 2 mps 659 mmHg 32%
    10:00 +25°C° 0 mm 2 mps 660 mmHg 25%
    11:00 +28°C° 0 mm 2 mps 660 mmHg 19%
    12:00 +29°C° 0 mm 2 mps 659 mmHg 17%
    13:00 +30°C° 0 mm 2 mps 659 mmHg 15%
    14:00 +30°C° 0 mm 2 mps 658 mmHg 15%
    15:00 +29°C° 0 mm 2 mps 658 mmHg 16%
    16:00 +28°C° 0 mm 2 mps 658 mmHg 17%
    17:00 +28°C° 0 mm 2 mps 657 mmHg 17%
    18:00 +25°C° 0 mm 2 mps 657 mmHg 22%
    19:00 +23°C° 0 mm 2 mps 657 mmHg 27%
    20:00 +20°C° 0 mm 2 mps 657 mmHg 32%
    21:00 +19°C° 0 mm 2 mps 657 mmHg 34%
    22:00 +18°C° 0 mm 2 mps 657 mmHg 37%
    23:00 +17°C° 0 mm 2 mps 657 mmHg 40%

    Tomorrow, 16 August, Thursday

    Time Temperature Precipitation Wind Pressure Humidity
    00:00 +17°C° 0 mm 2 mps 657 mmHg 44%
    01:00 +16°C° 0 mm 2 mps 656 mmHg 48%
    02:00 +16°C° 0 mm 2 mps 656 mmHg 53%
    03:00 +15°C° 0 mm 2 mps 656 mmHg 54%
    04:00 +15°C° 0 mm 2 mps 656 mmHg 56%
    05:00 +14°C° 0 mm 2 mps 656 mmHg 58%
    06:00 +16°C° 0 mm 2 mps 657 mmHg 52%
    07:00 +18°C° 0 mm 2 mps 657 mmHg 45%
    08:00 +20°C° 0 mm 2 mps 658 mmHg 39%
    09:00 +23°C° 0 mm 2 mps 658 mmHg 32%
    10:00 +26°C° 0 mm 2 mps 659 mmHg 24%
    11:00 +29°C° 0 mm 3 mps 660 mmHg 17%
    12:00 +30°C° 0 mm 3 mps 659 mmHg 15%
    13:00 +31°C° 0 mm 2 mps 658 mmHg 13%
    14:00 +32°C° 0 mm 2 mps 658 mmHg 11%
    15:00 +31°C° 0 mm 3 mps 657 mmHg 12%
    16:00 +31°C° 0 mm 3 mps 657 mmHg 12%
    17:00 +30°C° 0 mm 3 mps 656 mmHg 13%
    18:00 +27°C° 0 mm 2 mps 656 mmHg 16%
    19:00 +24°C° 0 mm 2 mps 656 mmHg 19%
    20:00 +21°C° 0 mm 2 mps 656 mmHg 22%
    21:00 +20°C° 0 mm 2 mps 656 mmHg 23%
    22:00 +19°C° 0 mm 2 mps 656 mmHg 25%
    23:00 +18°C° 0 mm 2 mps 656 mmHg 26%

    Day after tomorrow, 17 August, Friday

    Time Temperature Precipitation Wind Pressure Humidity
    00:00 +18°C° 0 mm 2 mps 656 mmHg 29%
    01:00 +17°C° 0 mm 2 mps 656 mmHg 32%
    02:00 +17°C° 0 mm 2 mps 655 mmHg 35%
    03:00 +16°C° 0 mm 2 mps 655 mmHg 38%
    04:00 +15°C° 0 mm 2 mps 655 mmHg 41%
    05:00 +15°C° 0 mm 1 mps 654 mmHg 44%
    06:00 +16°C° 0 mm 1 mps 655 mmHg 39%
    07:00 +18°C° 0 mm 2 mps 656 mmHg 35%
    08:00 +20°C° 0 mm 2 mps 657 mmHg 30%
    09:00 +25°C° 0 mm 1 mps 658 mmHg 24%
    10:00 +28°C° 0 mm 1 mps 659 mmHg 18%
    11:00 +32°C° 0 mm 1 mps 659 mmHg 12%
    12:00 +33°C° 0 mm 1 mps 659 mmHg 11%
    13:00 +34°C° 0 mm 1 mps 658 mmHg 10%
    14:00 +33°C° 0 mm 0 mps 658 mmHg 9%
    15:00 +33°C° 0 mm 1 mps 657 mmHg 9%
    16:00 +32°C° 0 mm 1 mps 656 mmHg 10%
    17:00 +30°C° 0 mm 1 mps 655 mmHg 11%
    18:00 +28°C° 0 mm 1 mps 655 mmHg 13%
    19:00 +25°C° 0 mm 1 mps 655 mmHg 16%
    20:00 +23°C° 0 mm 2 mps 655 mmHg 18%
    21:00 +21°C° 0 mm 2 mps 655 mmHg 20%
    22:00 +20°C° 0 mm 2 mps 655 mmHg 21%
    23:00 +19°C° 0 mm 2 mps 655 mmHg 23%

    18 August, Saturday

    Time Temperature Precipitation Wind Pressure Humidity
    00:00 +19°C° 0 mm 2 mps 655 mmHg 26%
    01:00 +18°C° 0 mm 2 mps 655 mmHg 30%
    02:00 +18°C° 0 mm 2 mps 654 mmHg 33%
    03:00 +17°C° 0 mm 2 mps 654 mmHg 37%
    04:00 +17°C° 0 mm 2 mps 654 mmHg 40%
    05:00 +16°C° 0 mm 2 mps 654 mmHg 43%
    06:00 +18°C° 0 mm 2 mps 655 mmHg 40%
    07:00 +20°C° 0 mm 3 mps 656 mmHg 37%
    08:00 +21°C° 0 mm 3 mps 657 mmHg 33%
    09:00 +25°C° 0 mm 3 mps 658 mmHg 29%
    10:00 +27°C° 0 mm 4 mps 658 mmHg 24%
    11:00 +29°C° 0 mm 4 mps 659 mmHg 20%
    12:00 +29°C° 0 mm 4 mps 658 mmHg 19%
    13:00 +30°C° 0 mm 4 mps 658 mmHg 19%
    14:00 +32°C° 0 mm 4 mps 657 mmHg 18%
    15:00 +30°C° 0 mm 4 mps 657 mmHg 20%
    16:00 +29°C° 0 mm 4 mps 657 mmHg 21%
    17:00 +28°C° 0 mm 4 mps 657 mmHg 23%
    18:00 +26°C° 0 mm 4 mps 657 mmHg 33%
    19:00 +22°C° 0 mm 4 mps 657 mmHg 43%
    20:00 +20°C° 0 mm 4 mps 657 mmHg 53%
    21:00 +19°C° 0 mm 4 mps 657 mmHg 60%
    22:00 +18°C° 0 mm 4 mps 657 mmHg 68%
    23:00 +17°C° 0 mm 4 mps 657 mmHg 75%

    19 August, Sunday

    Time Temperature Precipitation Wind Pressure Humidity
    00:00 +17°C° 0 mm 3 mps 656 mmHg 79%
    01:00 +16°C° 0 mm 3 mps 656 mmHg 83%
    02:00 +14°C° 0 mm 3 mps 655 mmHg 87%
    03:00 +14°C° 0 mm 3 mps 655 mmHg 89%
    04:00 +13°C° 0 mm 3 mps 655 mmHg 90%
    05:00 +13°C° 0 mm 3 mps 655 mmHg 92%
    06:00 +14°C° 0 mm 3 mps 656 mmHg 83%
    07:00 +16°C° 0 mm 3 mps 656 mmHg 75%
    08:00 +18°C° 0 mm 3 mps 657 mmHg 67%
    09:00 +21°C° 0 mm 3 mps 657 mmHg 54%
    10:00 +24°C° 0 mm 3 mps 658 mmHg 42%
    11:00 +27°C° 0 mm 3 mps 658 mmHg 30%
    12:00 +28°C° 0 mm 3 mps 658 mmHg 26%
    13:00 +29°C° 0 mm 2 mps 657 mmHg 23%
    14:00 +30°C° 0 mm 2 mps 656 mmHg 20%
    15:00 +30°C° 0 mm 2 mps 656 mmHg 21%
    16:00 +29°C° 0 mm 2 mps 656 mmHg 22%
    17:00 +28°C° 0 mm 3 mps 656 mmHg 22%
    18:00 +26°C° 0 mm 3 mps 656 mmHg 28%
    19:00 +24°C° 0 mm 2 mps 656 mmHg 33%
    20:00 +20°C° 0 mm 2 mps 656 mmHg 39%
    21:00 +20°C° 0 mm 2 mps 656 mmHg 43%
    22:00 +19°C° 0 mm 3 mps 656 mmHg 47%
    23:00 +18°C° 0 mm 3 mps 656 mmHg 52%

    20 August, Monday

    Time Temperature Precipitation Wind Pressure Humidity
    00:00 +18°C° 0 mm 3 mps 655 mmHg 55%
    01:00 +17°C° 0 mm 3 mps 655 mmHg 59%
    02:00 +17°C° 0 mm 3 mps 655 mmHg 62%
    03:00 +16°C° 0 mm 2 mps 655 mmHg 63%
    04:00 +16°C° 0 mm 2 mps 655 mmHg 65%
    05:00 +15°C° 0 mm 2 mps 655 mmHg 66%
    06:00 +17°C° 0 mm 2 mps 655 mmHg 59%
    07:00 +18°C° 0 mm 2 mps 656 mmHg 51%
    08:00 +20°C° 0 mm 2 mps 657 mmHg 44%
    09:00 +24°C° 0 mm 3 mps 657 mmHg 35%
    10:00 +26°C° 0 mm 3 mps 657 mmHg 27%
    11:00 +29°C° 0 mm 3 mps 658 mmHg 18%
    12:00 +30°C° 0 mm 3 mps 657 mmHg 16%
    13:00 +31°C° 0 mm 3 mps 656 mmHg 14%
    14:00 +33°C° 0 mm 3 mps 656 mmHg 12%
    15:00 +31°C° 0 mm 3 mps 656 mmHg 13%
    16:00 +30°C° 0 mm 3 mps 655 mmHg 13%
    17:00 +29°C° 0 mm 3 mps 655 mmHg 14%
    18:00 +27°C° 0 mm 3 mps 655 mmHg 18%
    19:00 +24°C° 0 mm 3 mps 655 mmHg 22%
    20:00 +21°C° 0 mm 2 mps 655 mmHg 26%
    21:00 +20°C° 0 mm 3 mps 655 mmHg 29%
    22:00 +20°C° 0 mm 3 mps 655 mmHg 32%
    23:00 +19°C° 0 mm 3 mps 655 mmHg 34%
    Show more